• In Romania
  • List of Countries
  • For 7 days
  • Water Temperature
  • Satellite Maps
  • Weather Map
  • Weather Widgets
  • user-avatar
    Login

    Hourly Weather Sydney

    Today, 23 June, Friday

    Time Temperature Precipitation Wind Pressure Humidity
    00:00 +9°C° 0 mm 2 mps 766 mmHg 96%
    01:00 +9°C° 0 mm 2 mps 766 mmHg 96%
    02:00 +9°C° 0 mm 2 mps 766 mmHg 95%
    03:00 +8°C° 0 mm 2 mps 765 mmHg 94%
    04:00 +8°C° 0 mm 2 mps 765 mmHg 92%
    05:00 +8°C° 0 mm 2 mps 765 mmHg 90%
    06:00 +7°C° 0 mm 3 mps 765 mmHg 89%
    07:00 +7°C° 0 mm 3 mps 765 mmHg 87%
    08:00 +10°C° 0 mm 3 mps 764 mmHg 77%
    09:00 +12°C° 0 mm 3 mps 764 mmHg 68%
    10:00 +14°C° 0 mm 3 mps 764 mmHg 59%
    11:00 +17°C° 0 mm 3 mps 763 mmHg 53%
    12:00 +18°C° 0 mm 3 mps 762 mmHg 48%
    13:00 +20°C° 0 mm 3 mps 761 mmHg 43%
    14:00 +19°C° 0 mm 3 mps 761 mmHg 48%
    15:00 +18°C° 0 mm 3 mps 760 mmHg 52%
    16:00 +18°C° 0 mm 2 mps 760 mmHg 57%
    17:00 +16°C° 0 mm 3 mps 760 mmHg 60%
    18:00 +13°C° 0 mm 4 mps 760 mmHg 63%
    19:00 +12°C° 0 mm 5 mps 760 mmHg 66%
    20:00 +10°C° 0 mm 5 mps 760 mmHg 68%
    21:00 +10°C° 0 mm 5 mps 761 mmHg 70%
    22:00 +9°C° 0 mm 5 mps 761 mmHg 72%
    23:00 +9°C° 0 mm 5 mps 760 mmHg 72%

    Tomorrow, 24 June, Saturday

    Time Temperature Precipitation Wind Pressure Humidity
    00:00 +8°C° 0 mm 5 mps 760 mmHg 72%
    01:00 +8°C° 0 mm 5 mps 760 mmHg 72%
    02:00 +8°C° 0 mm 5 mps 760 mmHg 72%
    03:00 +8°C° 0 mm 5 mps 760 mmHg 72%
    04:00 +7°C° 0 mm 5 mps 760 mmHg 72%
    05:00 +7°C° 0 mm 5 mps 761 mmHg 73%
    06:00 +7°C° 0 mm 5 mps 761 mmHg 74%
    07:00 +7°C° 0 mm 4 mps 761 mmHg 74%
    08:00 +10°C° 0 mm 4 mps 762 mmHg 67%
    09:00 +12°C° 0 mm 4 mps 762 mmHg 60%
    10:00 +14°C° 0 mm 4 mps 762 mmHg 53%
    11:00 +15°C° 0 mm 4 mps 762 mmHg 50%
    12:00 +18°C° 0 mm 4 mps 761 mmHg 46%
    13:00 +19°C° 0 mm 4 mps 761 mmHg 42%
    14:00 +18°C° 0 mm 3 mps 761 mmHg 48%
    15:00 +18°C° 0 mm 2 mps 761 mmHg 55%
    16:00 +17°C° 0 mm 2 mps 761 mmHg 61%
    17:00 +15°C° 0 mm 2 mps 761 mmHg 65%
    18:00 +13°C° 0 mm 2 mps 762 mmHg 68%
    19:00 +10°C° 0 mm 2 mps 762 mmHg 72%
    20:00 +10°C° 0 mm 2 mps 763 mmHg 74%
    21:00 +9°C° 0 mm 2 mps 763 mmHg 76%
    22:00 +9°C° 0 mm 2 mps 763 mmHg 78%
    23:00 +9°C° 0 mm 3 mps 763 mmHg 81%

    Day after tomorrow, 25 June, Sunday

    Time Temperature Precipitation Wind Pressure Humidity
    00:00 +8°C° 0 mm 3 mps 763 mmHg 84%
    01:00 +7°C° 0 mm 4 mps 763 mmHg 87%
    02:00 +6°C° 0 mm 4 mps 763 mmHg 88%
    03:00 +7°C° 0 mm 3 mps 763 mmHg 90%
    04:00 +7°C° 0 mm 3 mps 763 mmHg 91%
    05:00 +5°C° 0 mm 3 mps 763 mmHg 91%
    06:00 +5°C° 0 mm 3 mps 763 mmHg 91%
    07:00 +5°C° 0 mm 3 mps 763 mmHg 91%
    08:00 +9°C° 0 mm 3 mps 764 mmHg 81%
    09:00 +11°C° 0 mm 3 mps 764 mmHg 71%
    10:00 +13°C° 0 mm 3 mps 764 mmHg 61%
    11:00 +16°C° 0 mm 3 mps 763 mmHg 56%
    12:00 +18°C° 0 mm 4 mps 762 mmHg 50%
    13:00 +19°C° 0 mm 4 mps 762 mmHg 45%
    14:00 +19°C° 0 mm 4 mps 762 mmHg 49%
    15:00 +18°C° 0 mm 4 mps 762 mmHg 52%
    16:00 +17°C° 0 mm 3 mps 761 mmHg 56%
    17:00 +15°C° 0 mm 4 mps 762 mmHg 62%
    18:00 +13°C° 0 mm 4 mps 762 mmHg 68%
    19:00 +11°C° 0 mm 4 mps 763 mmHg 74%
    20:00 +10°C° 0 mm 4 mps 763 mmHg 76%
    21:00 +10°C° 0 mm 4 mps 763 mmHg 78%
    22:00 +8°C° 0 mm 4 mps 764 mmHg 80%
    23:00 +8°C° 0 mm 4 mps 763 mmHg 82%

    26 June, Monday

    Time Temperature Precipitation Wind Pressure Humidity
    00:00 +8°C° 0 mm 4 mps 763 mmHg 84%
    01:00 +8°C° 0 mm 4 mps 763 mmHg 86%
    02:00 +7°C° 0 mm 4 mps 763 mmHg 87%
    03:00 +7°C° 0 mm 5 mps 763 mmHg 88%
    04:00 +7°C° 0 mm 5 mps 763 mmHg 89%
    05:00 +6°C° 0 mm 5 mps 764 mmHg 88%
    06:00 +6°C° 0 mm 5 mps 765 mmHg 87%
    07:00 +6°C° 0 mm 5 mps 765 mmHg 86%
    08:00 +8°C° 0 mm 5 mps 766 mmHg 75%
    09:00 +10°C° 0 mm 5 mps 766 mmHg 65%
    10:00 +13°C° 0 mm 5 mps 767 mmHg 55%
    11:00 +14°C° 0 mm 4 mps 766 mmHg 50%
    12:00 +15°C° 0 mm 4 mps 766 mmHg 46%
    13:00 +17°C° 0 mm 4 mps 766 mmHg 42%
    14:00 +17°C° 0 mm 4 mps 766 mmHg 47%
    15:00 +15°C° 0 mm 4 mps 766 mmHg 52%
    16:00 +14°C° 0 mm 3 mps 767 mmHg 56%
    17:00 +12°C° 0 mm 3 mps 767 mmHg 64%
    18:00 +10°C° 0 mm 3 mps 768 mmHg 73%
    19:00 +8°C° 0 mm 3 mps 769 mmHg 81%
    20:00 +8°C° 0 mm 3 mps 769 mmHg 79%
    21:00 +9°C° 0 mm 3 mps 769 mmHg 77%
    22:00 +9°C° 0 mm 3 mps 770 mmHg 75%
    23:00 +9°C° 0 mm 3 mps 770 mmHg 76%

    27 June, Tuesday

    Time Temperature Precipitation Wind Pressure Humidity
    00:00 +9°C° 0 mm 3 mps 769 mmHg 77%
    01:00 +9°C° 0 mm 3 mps 769 mmHg 78%
    02:00 +8°C° 0.1 mm 3 mps 769 mmHg 79%
    03:00 +8°C° 0.1 mm 3 mps 769 mmHg 80%
    04:00 +8°C° 0.1 mm 3 mps 769 mmHg 81%
    05:00 +8°C° 0.1 mm 3 mps 770 mmHg 82%
    06:00 +7°C° 0.1 mm 3 mps 770 mmHg 82%
    07:00 +7°C° 0.1 mm 3 mps 770 mmHg 83%
    08:00 +9°C° 0.1 mm 3 mps 770 mmHg 77%
    09:00 +11°C° 0.1 mm 3 mps 770 mmHg 70%
    10:00 +14°C° 0.1 mm 2 mps 770 mmHg 64%
    11:00 +15°C° 0 mm 2 mps 770 mmHg 62%
    12:00 +16°C° 0 mm 2 mps 769 mmHg 60%
    13:00 +17°C° 0 mm 2 mps 769 mmHg 58%
    14:00 +16°C° 0 mm 2 mps 768 mmHg 63%
    15:00 +16°C° 0 mm 2 mps 768 mmHg 67%
    16:00 +15°C° 0 mm 2 mps 768 mmHg 72%
    17:00 +14°C° 0 mm 2 mps 769 mmHg 78%
    18:00 +12°C° 0 mm 2 mps 769 mmHg 84%
    19:00 +10°C° 0 mm 2 mps 769 mmHg 90%
    20:00 +10°C° 0.1 mm 1 mps 769 mmHg 92%
    21:00 +10°C° 0.1 mm 1 mps 769 mmHg 94%
    22:00 +9°C° 0.1 mm 1 mps 769 mmHg 96%
    23:00 +9°C° 0.1 mm 1 mps 769 mmHg 97%

    28 June, Wednesday

    Time Temperature Precipitation Wind Pressure Humidity
    00:00 +9°C° 0.1 mm 1 mps 769 mmHg 97%
    01:00 +9°C° 0.1 mm 1 mps 768 mmHg 97%
    02:00 +8°C° 0 mm 2 mps 768 mmHg 97%
    03:00 +8°C° 0 mm 2 mps 768 mmHg 97%
    04:00 +7°C° 0 mm 2 mps 768 mmHg 98%
    05:00 +7°C° 0.1 mm 2 mps 768 mmHg 98%
    06:00 +7°C° 0.1 mm 2 mps 769 mmHg 98%
    07:00 +7°C° 0.1 mm 2 mps 769 mmHg 98%
    08:00 +9°C° 0 mm 2 mps 769 mmHg 89%
    09:00 +12°C° 0 mm 2 mps 769 mmHg 80%
    10:00 +14°C° 0 mm 2 mps 769 mmHg 71%
    11:00 +16°C° 0.1 mm 2 mps 768 mmHg 66%
    12:00 +17°C° 0.1 mm 2 mps 768 mmHg 60%
    13:00 +18°C° 0.1 mm 2 mps 767 mmHg 55%
    14:00 +17°C° 0 mm 2 mps 767 mmHg 59%
    15:00 +16°C° 0 mm 2 mps 767 mmHg 64%
    16:00 +16°C° 0 mm 2 mps 767 mmHg 68%
    17:00 +14°C° 0 mm 2 mps 767 mmHg 76%
    18:00 +13°C° 0 mm 2 mps 768 mmHg 84%
    19:00 +10°C° 0 mm 2 mps 768 mmHg 92%
    20:00 +10°C° 0 mm 2 mps 768 mmHg 91%
    21:00 +10°C° 0 mm 2 mps 768 mmHg 90%
    22:00 +10°C° 0 mm 3 mps 768 mmHg 89%
    23:00 +10°C° 0 mm 3 mps 768 mmHg 86%
    Show more